Tracking 29528 objects as of 12-Sep-2024
HD Live streaming from Space Station
objects crossing your sky now

STARLINK-1215

Track STARLINK-1215 now!
10-day predictions
STARLINK-1215 is classified as:


NORAD ID: 45225
Int'l Code: 2020-012AZ
Perigee: 553.4 km
Apogee: 555.4 km
Inclination: 53.1 °
Period: 95.6 minutes
Semi major axis: 6925 km
RCS: Unknown
Launch date: February 17, 2020
Source: United States (US)
Launch site: AIR FORCE EASTERN TEST RANGE (AFETR)
Your satellite tracking list
Your tracking list is empty




NASA's NSSDC Master Catalog

Two Line Element Set (TLE):
1 45225U 20012AZ  24255.39308128 -.00000294  00000-0 -85399-6 0  9992
2 45225  53.0533 290.0638 0001427  91.5520 268.5632 15.06396186253314
Source of the keplerian elements: AFSPC